GREB

Satellite information

Favourite Embed

Satellite Type and Status

PAYLOADIN ORBIT

Key statistics

Satellite GREB at a glance.

Uptime

22399

Days in orbit

Revolutions

≈ 14.0

Per day

Orbit

LEO

Low Earth Orbit

Inclination

69.9

Latest

Satellite identification and parameters

Extended collection of information and parameters for GREB.

Object identification

Identified? True

Debris? False

Object name: GREB

International designator: 1964-001E

Object number (NORAD): 731

Object ID (CCSDS): 731

Country: UNITED STATES OF AMERICA (US)

Current information (Y/N): Y

RCS size: MEDIUM

Orbital parameters

Period: 103.135 minutes

Inclination: 69.9068 deg

SMA: 7285.02 km

Apoapsis: 917.561 km

Periapsis: 896.209 km

RAAN: 57.9769 deg

Eccentricy: 0.0014655

Argument of periapsis: 199.6544 deg

Mean anomaly: 160.3998 deg

Mean motion: 13.96229021 rev/day

Mean motion (dot): 0.00000049 rev/day2

B* drag term: 0.000074434 1/REarth

Two-line elements (TLE)

Creation date: May 8, 2025, 3:01 a.m.

Reference frame: TEME

Reference center: EARTH

Epoch: May 7, 2025, 7:32 p.m. UTC

TLE line 0: 0 GREB

TLE line 1: 1 00731U 64001E 25127.81442751 .00000049 00000-0 74434-4 0 9990

TLE line 2: 2 00731 69.9068 57.9769 0014655 199.6544 160.3998 13.96229021120995

Live tracking on map

Real-time ground track for satellite GREB.

In-orbit conjunctions

A list of the most updated potential collisions computed for object GREB.

Target Orbit TCA Probability of collision Miss distance Type
COSMOS 1275 DEB LEO 2024-08-18 00:18:49 0.0001098495 814.0 (m) DEBRIS
FENGYUN 1C DEB SSO 2024-07-02 21:45:27 0.0002197688 466.0 (m) DEBRIS

Associated space launch

Poppy was the follow-on ELINT system, which succeeded the Grab ELINT satellite system.

GREB was lifted into orbit during the mission ‘Thor SLV-2A Agena D | Poppy 5A, 5B & 5C’, on board a Thor SLV-2A Agena D space rocket.

The launch took place on Jan. 11, 1964, 8:07 p.m. from Space Launch Complex 1E.

For more information about the launch, click the button.

Launch to space Thor SLV-2A Agena D | Poppy 5A, 5B & 5C
Thor SLV-2A Agena D | Poppy 5A, 5B & 5C

Agency: N/A

Status: Launch Successful

Launch date: Jan. 11, 1964, 8:07 p.m. UTC

Rocket: Thor SLV-2A Agena D

Launch pad: Space Launch Complex 1E

Location: Vandenberg SFB, CA, USA

...

Latest news about this satellite

There are no fresh news available about this satellite. Check back as we update our databases every day.


Newsletter sign-up

Weekly statistics, charts and insights to help you stay on top of the space industry.